Weather History for KEWN - October, 2012

Change the Weather History Date:

Monday, October 15, 2012

  Actual Average Record
Temperature  
Mean Temperature 70 °F 64 °F  
Max Temperature 83 °F 75 °F 88 °F (1985)
Min Temperature 56 °F 54 °F 36 °F (2006)
Degree Days  
Heating Degree Days 0 3  
Month to date heating degree days 26 30  
Since 1 July heating degree days 27 37  
Cooling Degree Days 5 2  
Month to date cooling degree days 73 56  
Year to date cooling degree days 2007 1859  
Growing Degree Days 18 (Base 50)    
Moisture  
Dew Point 61 °F    
Average Humidity 77    
Maximum Humidity 100    
Minimum Humidity 54    
Precipitation  
Precipitation 0.49 in 0.09 in 1.91 in (1959)
Month to date precipitation 1.44 1.76  
Year to date precipitation 44.23 44.45  
Snow  
Snow 0.00 in - - ()
Month to date snowfall 0.0  
Since 1 July snowfall 0.0  
Snow Depth 0.00 in    
Sea Level Pressure  
Sea Level Pressure 29.89 in    
Wind  
Wind Speed 5 mph (SW)    
Max Wind Speed 16 mph    
Max Gust Speed 25 mph    
Visibility 6 miles    
Events Fog , Rain , Thunderstorm    
T = Trace of Precipitation, MM = Missing Value Source: NWS Daily Summary

Daily Weather History Graph

Daily Weather History Graph

Search for Another Location

Airport or City:

Trip Planner

Search our weather history database for the weather conditions in past years. The results will help you decide how hot, cold, wet, or windy it might be!

Date:

Astronomy

Oct. 15, 2012 Rise Set
Actual Time 7:14 AM EDT 6:32 PM EDT
Civil Twilight 6:49 AM EDT 6:58 PM EDT
Nautical Twilight 6:19 AM EDT 7:27 PM EDT
Astronomical Twilight 5:50 AM EDT 7:56 PM EDT
Moon 7:20 AM EDT (10/15) 6:33 PM EDT (10/15)
Length of Visible Light 12h 09m
Length of Day
11h 18m
New Moon, 0% of the Moon is Illuminated
Oct 15
New Moon
Oct 21
First Quarter
Oct 29
Full
Nov 6
Last Quarter
Nov 13
New

Hourly Weather History & Observations

Time (EDT) Temp. Heat Index Dew Point Humidity Pressure Visibility Wind Dir Wind Speed Gust Speed Precip Events Conditions
12:01 AM 57.2 °F - 55.4 °F 94% 30.09 in 1.8 mi Calm Calm - N/A   Clear
12:11 AM 55.4 °F - 55.4 °F 100% 30.08 in 3.0 mi Calm Calm - N/A   Clear
12:22 AM 55.4 °F - 55.4 °F 100% 30.08 in 1.5 mi Calm Calm - N/A   Clear
12:33 AM 57.2 °F - 55.4 °F 94% 30.07 in 4.0 mi Calm Calm - N/A   Clear
12:54 AM 55.9 °F - 55.0 °F 97% 30.06 in 7.0 mi Calm Calm - N/A   Clear
1:54 AM 55.9 °F - 55.0 °F 97% 30.04 in 10.0 mi SE 3.5 mph - N/A   Clear
2:54 AM 61.0 °F - 59.0 °F 93% 30.00 in 10.0 mi South 3.5 mph - N/A   Clear
3:54 AM 57.9 °F - 55.9 °F 93% 29.98 in 4.0 mi Calm Calm - N/A   Clear
4:10 AM 57.2 °F - 57.2 °F 100% 29.98 in 3.0 mi Calm Calm - N/A   Clear
4:27 AM 59.0 °F - 57.2 °F 94% 29.98 in 1.8 mi Calm Calm - N/A   Clear
4:34 AM 57.2 °F - 57.2 °F 100% 29.98 in 3.0 mi Calm Calm - N/A   Clear
4:54 AM 57.9 °F - 55.9 °F 93% 29.98 in 10.0 mi Calm Calm - N/A   Clear
5:33 AM 57.2 °F - 55.4 °F 94% 29.97 in 1.8 mi Calm Calm - N/A   Scattered Clouds
5:42 AM 57.2 °F - 55.4 °F 94% 29.98 in 3.0 mi Calm Calm - N/A   Scattered Clouds
5:50 AM 57.2 °F - 55.4 °F 94% 29.97 in 2.5 mi Calm Calm - N/A   Mostly Cloudy
5:54 AM 57.9 °F - 57.0 °F 97% 29.97 in 3.0 mi Calm Calm - N/A Fog Shallow Fog
6:32 AM 57.2 °F - 57.2 °F 100% 29.97 in 3.0 mi Calm Calm - N/A Fog Shallow Fog
6:54 AM 57.0 °F - 55.9 °F 96% 29.97 in 5.0 mi Calm Calm - N/A Fog Shallow Fog
8:54 AM 62.1 °F - 61.0 °F 96% 29.96 in 10.0 mi Calm Calm - N/A   Clear
9:54 AM 70.0 °F - 66.9 °F 90% 29.95 in 10.0 mi SW 3.5 mph - N/A   Clear
10:54 AM 75.0 °F - 64.9 °F 71% 29.93 in 10.0 mi WSW 6.9 mph - N/A   Clear
11:54 AM 77.0 °F - 63.0 °F 62% 29.92 in 10.0 mi WSW 11.5 mph - N/A   Clear
12:54 PM 79.0 °F - 63.0 °F 58% 29.88 in 10.0 mi SW 8.1 mph - N/A   Clear
1:54 PM 81.0 °F 81.9 °F 62.1 °F 52% 29.83 in 10.0 mi Variable 4.6 mph - N/A   Clear
2:54 PM 81.0 °F 81.9 °F 62.1 °F 52% 29.78 in 10.0 mi SW 8.1 mph - N/A   Clear
3:54 PM 80.1 °F 81.7 °F 64.0 °F 58% 29.77 in 10.0 mi SW 5.8 mph - N/A   Clear
4:54 PM 79.0 °F - 66.0 °F 64% 29.76 in 10.0 mi South 6.9 mph - N/A   Partly Cloudy
5:54 PM 75.9 °F - 68.0 °F 76% 29.75 in 10.0 mi South 6.9 mph - N/A   Clear
6:54 PM 73.0 °F - 68.0 °F 84% 29.74 in 10.0 mi South 5.8 mph - 0.00 in Rain Light Rain
7:50 PM 71.6 °F - 68.0 °F 88% 29.74 in 1.5 mi SSW 9.2 mph 16.1 mph 0.20 in Rain , Thunderstorm Heavy Rain
7:54 PM 71.1 °F - 66.9 °F 87% 29.75 in 1.5 mi SSW 8.1 mph 16.1 mph 0.21 in Rain , Thunderstorm Heavy Rain
7:59 PM 71.6 °F - 68.0 °F 88% 29.75 in 3.0 mi West 8.1 mph - 0.00 in Rain , Thunderstorm Light Rain
8:12 PM 69.8 °F - 66.2 °F 88% 29.77 in 2.5 mi WNW 11.5 mph 25.3 mph 0.10 in Rain , Thunderstorm Heavy Thunderstorms and Rain
8:20 PM 66.2 °F - 66.2 °F 100% 29.75 in 1.2 mi Calm Calm - 0.28 in Rain , Thunderstorm Heavy Thunderstorms and Rain
8:24 PM 66.2 °F - 64.4 °F 94% 29.75 in 2.0 mi Calm Calm - 0.28 in Rain Light Rain
8:31 PM 66.2 °F - 64.4 °F 94% 29.75 in 10.0 mi Calm Calm - 0.28 in Rain Light Rain
8:54 PM 66.9 °F - 64.9 °F 93% 29.75 in 9.0 mi SW 3.5 mph - 0.28 in Rain Light Rain
9:54 PM 66.9 °F - 64.9 °F 93% 29.77 in 10.0 mi Calm Calm - 0.00 in   Clear
10:54 PM 66.9 °F - 64.0 °F 90% 29.78 in 10.0 mi West 9.2 mph - N/A   Clear
11:54 PM 64.9 °F - 62.1 °F 90% 29.79 in 10.0 mi WNW 6.9 mph - N/A   Clear